EW7948 Weather Reports


Display with metric or nautical units.
time (UTC)temp
F
wind
direction
speed
MPH
gust
MPH
rain 1hr
in
rain 24hr
in
rain mn
in
humidity
%
barometer
mb
20260502151522 58 176 3.0 6.0 0.00 0.00 0.00 22 1017.0
20260502130121 45 176 4.0 8.0 0.00 0.00 0.00 30 1015.8
20260502123122 43 114 3.0 6.0 0.00 0.00 0.00 34 1015.2
20260502121554 42 102 4.0 6.0 0.00 0.00 0.00 36 1015.1
20260502120109 42 74 3.0 5.0 0.00 0.00 0.00 37 1014.9
20260502114554 41 348 1.0 3.0 0.00 0.00 0.00 45 1014.9
20260502113050 41 348 0.0 0.0 0.00 0.00 0.00 42 1014.9
20260502111547 41 348 0.0 1.0 0.00 0.00 0.00 43 1014.8
20260502110049 41 348 0.0 0.0 0.00 0.00 0.00 38 1014.7
20260502104542 42 348 0.0 0.0 0.00 0.00 0.00 42 1014.8
20260502103039 42 348 0.0 0.0 0.00 0.00 0.00 35 1014.7
20260502101548 43 348 0.0 0.0 0.00 0.00 0.00 32 1014.6
20260502091530 44 347 1.0 3.0 0.00 0.00 0.00 42 1013.8
20260502071510 49 347 0.0 0.0 0.00 0.00 0.00 37 1013.5
20260502070005 50 347 0.0 0.0 0.00 0.00 0.00 38 1013.5
20260502064504 51 347 0.0 1.0 0.00 0.00 0.00 28 1013.4
20260502063102 52 347 0.0 1.0 0.00 0.00 0.00 30 1013.3
20260502061600 51 347 0.0 2.0 0.00 0.00 0.00 31 1013.2
20260502060109 51 347 0.0 0.0 0.00 0.00 0.00 25 1013.1
20260502054555 52 347 0.0 0.0 0.00 0.00 0.00 26 1012.9
20260502053054 53 347 0.0 1.0 0.00 0.00 0.00 24 1012.8
20260502051600 53 347 0.0 0.0 0.00 0.00 0.00 23 1012.7
20260502050057 54 347 0.0 0.0 0.00 0.00 0.00 25 1012.7
20260502044553 55 347 0.0 0.0 0.00 0.00 0.00 21 1012.6
20260502043058 56 347 0.0 0.0 0.00 0.00 0.00 22 1012.5
20260502041555 57 347 0.0 0.0 0.00 0.00 0.00 22 1012.4
20260502034558 59 347 0.0 0.0 0.00 0.00 0.00 23 1012.0
20260502033050 60 347 0.0 0.0 0.00 0.00 0.00 20 1011.7
20260502031550 61 347 0.0 0.0 0.00 0.00 0.00 18 1011.5
20260502030050 62 347 0.0 4.0 0.00 0.00 0.00 19 1011.2
20260502024607 63 347 2.0 6.0 0.00 0.00 0.00 18 1010.9
20260502023049 64 344 5.0 9.0 0.00 0.00 0.00 17 1010.7
20260502021552 65 345 4.0 11.0 0.00 0.00 0.00 15 1010.5
20260502020050 66 360 7.0 11.0 0.00 0.00 0.00 15 1010.2
20260502014547 67 12 7.0 12.0 0.00 0.00 0.00 15 1010.2
20260502013046 68 5 9.0 14.0 0.00 0.00 0.00 13 1009.9
20260502011546 69 355 8.0 17.0 0.00 0.00 0.00 13 1009.8
20260502010052 69 14 11.0 18.0 0.00 0.00 0.00 13 1009.6
20260502004558 70 11 12.0 18.0 0.00 0.00 0.00 13 1009.4
20260502003044 70 346 13.0 20.0 0.00 0.00 0.00 13 1009.4
20260502001543 70 342 10.0 21.0 0.00 0.00 0.00 12 1009.6
20260502000043 70 344 14.0 19.0 0.00 0.00 0.00 12 1009.4
20260501234542 70 12 9.0 19.0 0.00 0.00 0.00 12 1009.4
20260501233044 70 346 8.0 14.0 0.00 0.00 0.00 13 1009.5
20260501231539 70 331 11.0 19.0 0.00 0.00 0.00 12 1009.5
20260501230038 70 331 10.0 18.0 0.00 0.00 0.00 12 1009.6
20260501224541 70 18 12.0 17.0 0.00 0.00 0.00 11 1009.6
20260501223035 70 340 9.0 23.0 0.00 0.00 0.00 13 1009.9
20260501221533 70 319 4.0 17.0 0.00 0.00 0.00 13 1010.0
20260501220036 71 338 4.0 9.0 0.00 0.00 0.00 14 1010.2
20260501214529 70 281 6.0 12.0 0.00 0.00 0.00 14 1010.2
20260501213040 70 349 5.0 14.0 0.00 0.00 0.00 14 1010.6
20260501211526 69 22 1.0 11.0 0.00 0.00 0.00 16 1010.8
20260501210036 69 16 3.0 16.0 0.00 0.00 0.00 15 1010.8
20260501204525 68 59 3.0 16.0 0.00 0.00 0.00 16 1010.9
20260501203018 69 262 4.0 12.0 0.00 0.00 0.00 16 1011.1
20260501201520 68 290 12.0 19.0 0.00 0.00 0.00 16 1011.2
20260501200019 69 13 4.0 14.0 0.00 0.00 0.00 16 1011.3
20260501194519 69 331 4.0 10.0 0.00 0.00 0.00 16 1011.5
20260501193011 68 276 3.0 9.0 0.00 0.00 0.00 17 1011.6
20260501191510 66 130 4.0 11.0 0.00 0.00 0.00 17 1011.8
20260501190009 65 42 2.0 12.0 0.00 0.00 0.00 18 1011.9
20260501184508 67 261 5.0 11.0 0.00 0.00 0.00 18 1012.0
20260501183005 65 213 5.0 13.0 0.00 0.00 0.00 19 1012.3
20260501181501 65 300 6.0 9.0 0.00 0.00 0.00 19 1012.6
20260501180114 64 37 4.0 13.0 0.00 0.00 0.00 19 1012.6
20260501174558 64 360 6.0 11.0 0.00 0.00 0.00 19 1012.6
20260501173053 63 5 7.0 11.0 0.00 0.00 0.00 21 1012.9
20260501171551 62 5 7.0 12.0 0.00 0.00 0.00 21 1012.9
20260501170053 61 28 7.0 14.0 0.00 0.00 0.00 22 1012.9
20260501164550 61 40 12.0 18.0 0.00 0.00 0.00 21 1012.9
20260501163051 61 39 8.0 13.0 0.00 0.00 0.00 23 1013.0
20260501161545 60 28 13.0 18.0 0.00 0.00 0.00 23 1013.1
20260501160042 59 350 7.0 16.0 0.00 0.00 0.00 24 1013.1